Tracking 19638 objects as of 21-Apr-2019
HD Live streaming from Space Station
objects crossing your sky now

COSMOS 1365 FUEL CORE

Track COSMOS 1365 FUEL CORE now!
10-day predictions


NORAD ID: 13594
Int'l Code: 1982-043D
Perigee: 884.0 km
Apogee: 965.6 km
Inclination: 65.1 °
Period: 103.4 minutes
Semi major axis: 7295 km
RCS: 0.1563 m2 (medium)
Launch date: May 14, 1982
Source: Commonwealth of Independent States (former USSR) (CIS)
Launch site: TYURATAM MISSILE AND SPACE COMPLEX (TTMTR)

Note: This is SATELLITE DEBRIS
aabbcc
Your satellite tracking list
Your tracking list is empty




NASA's NSSDC Master Catalog

Two Line Element Set (TLE):
1 13594U 82043D   19110.93153756 -.00000080 +00000-0 +81211-5 0  9997
2 13594 065.0690 324.3384 0055926 203.1014 156.7536 13.93132327881683
Source of the keplerian elements: AFSPC